Powrót do katalogu

COSMOS 2288

GLONASS

AktywnyNawigacjaMEO
NORAD 23205·PAYLOAD·🇷🇺 Russia

Wystrzelony Aug 11, 1994 z Baikonur Cosmodrome

Loading…

Następne Przeloty (najbliższe 24 godziny)

TLE

ŚwieżeSource: Space-Track

Epoka: Sep 11, 2026, 07:03 UTC

1 23205U 94050C   26254.29385287 -.00000005  00000-0  00000-0 0  9999
2 23205  65.4144 199.3653 0002218 296.1210 241.8860  2.13101583249668

Śledź COSMOS 2288 w czasie rzeczywistym z AllMySat

Download on the App Store